Location: Via Auriletto, 13, 10098 Rivoli TO, Italia
(45.0746°N, 7.5214°E)
Time: 14:28:51
(UTC+01:00)

AAUSAT CUBESAT 2 - Visible Passes

Search period start: 19 November 2019 00:00
Search period end: 29 November 2019 00:00
Orbit: 574 x 592 km, 97.5° (Epoch: 19 November)

Date Brightness Start Highest point End Pass type
(mag) Time Alt. Az. Time Alt. Az. Time Alt. Az.
19 Nov ? 06:37:48 10° NNE 06:41:39 36° E 06:45:28 10° SSE visible
19 Nov ? 17:29:19 10° SE 17:32:54 30° ENE 17:36:28 10° N visible
19 Nov ? 19:04:58 10° SSW 19:08:18 24° W 19:11:40 10° NW visible
20 Nov ? 06:43:31 10° NNE 06:47:28 42° E 06:51:24 10° S visible
20 Nov ? 17:34:57 10° SE 17:38:38 34° ENE 17:42:22 10° N visible
20 Nov ? 19:11:01 10° SW 19:14:09 21° W 19:17:17 10° NW visible
21 Nov ? 06:49:15 10° NNE 06:53:16 49° E 06:57:17 10° S visible
21 Nov ? 17:40:35 10° SE 17:44:24 40° ENE 17:48:14 10° N visible
21 Nov ? 19:17:07 10° SW 19:19:58 18° W 19:22:51 10° NW visible
22 Nov ? 06:55:00 10° NNE 06:59:05 58° E 07:03:09 10° S visible
22 Nov ? 17:46:16 10° SE 17:50:10 46° ENE 17:54:06 10° N visible
22 Nov ? 19:23:17 10° SW 19:25:49 16° W 19:28:22 10° NW visible
23 Nov ? 07:00:45 10° NNE 07:04:52 68° E 07:09:00 10° S visible
23 Nov ? 17:51:58 10° SSE 17:55:56 54° ENE 17:59:55 10° N visible
23 Nov ? 19:29:33 10° WSW 19:31:40 14° W 19:33:48 10° WNW visible
24 Nov ? 07:06:31 10° NNE 07:10:41 79° ESE 07:14:49 10° S visible
24 Nov ? 17:57:40 10° SSE 18:01:42 63° ENE 18:05:46 10° N visible
24 Nov ? 19:35:59 10° WSW 19:37:31 12° W 19:39:05 10° WNW visible
25 Nov ? 18:03:25 10° SSE 18:07:28 73° ENE 18:11:35 10° N visible
25 Nov ? 19:43:04 10° W 19:43:23 10° W 19:43:42 10° W visible
26 Nov ? 18:09:11 10° SSE 18:13:15 85° ENE 18:17:23 10° NNW visible
27 Nov ? 05:50:43 10° ENE 05:52:12 12° E 05:53:40 10° ESE visible
27 Nov ? 18:14:57 10° S 18:19:02 83° WSW 18:23:10 10° NNW visible
28 Nov ? 05:55:57 10° ENE 05:58:03 13° E 06:00:08 10° ESE visible
28 Nov ? 18:20:46 10° S 18:24:50 71° WSW 18:28:57 10° NNW visible
